ZKJEE NZAA-NZHN

Flight info

Callsign ZKJEE
Flight time 0h 30m
Altitude 10000
Route ORIDI
Aircraft DHC6/L-SDFGR/C

Departure

Time 2026-05-03 23:07
Airport Auckland International Airport (NZAA)

Arrival

Time 2026-05-03 23:37
Airport Hamilton International Airport (NZHN)
Time Latitude Longitude Altitude Speed Heading
2026-05-03 23:00 -37.00336 174.80377 32 ft 0 kts 74°
2026-05-03 23:04 -37.00336 174.80379 32 ft 0 kts 72°
2026-05-03 23:04 -37.00330 174.80431 32 ft 15 kts 110°
2026-05-03 23:04 -37.00424 174.80396 32 ft 23 kts 238°
2026-05-03 23:05 -37.00486 174.80437 32 ft 20 kts 89°
2026-05-03 23:05 -37.00554 174.80583 32 ft 21 kts 189°
2026-05-03 23:05 -37.00689 174.80499 32 ft 15 kts 253°
2026-05-03 23:05 -37.00697 174.80470 32 ft 0 kts 247°
2026-05-03 23:06 -37.00716 174.80415 32 ft 38 kts 247°
2026-05-03 23:06 -37.00933 174.79761 107 ft 111 kts 248°
2026-05-03 23:06 -37.01227 174.78804 493 ft 123 kts 250°
2026-05-03 23:07 -37.01471 174.77899 1186 ft 106 kts 253°
2026-05-03 23:07 -37.01646 174.76613 166 ft 197 kts 260°
2026-05-03 23:07 -37.02309 174.75246 277 ft 182 kts 220°
2026-05-03 23:07 -37.03437 174.74770 633 ft 164 kts 184°
2026-05-03 23:08 -37.04562 174.74781 977 ft 157 kts 180°
2026-05-03 23:08 -37.05664 174.74813 1329 ft 154 kts 177°
2026-05-03 23:08 -37.06711 174.74801 1675 ft 150 kts 180°
2026-05-03 23:08 -37.07742 174.74742 2019 ft 148 kts 184°
2026-05-03 23:09 -37.08768 174.74637 2356 ft 149 kts 184°
2026-05-03 23:09 -37.09792 174.74488 2716 ft 149 kts 186°
2026-05-03 23:09 -37.10832 174.74299 3044 ft 153 kts 185°
2026-05-03 23:09 -37.11883 174.74082 3401 ft 153 kts 186°
2026-05-03 23:10 -37.12935 174.73843 3752 ft 154 kts 186°
2026-05-03 23:10 -37.13981 174.73588 4099 ft 154 kts 187°
2026-05-03 23:10 -37.15033 174.73316 4448 ft 155 kts 187°
2026-05-03 23:10 -37.16094 174.73039 4799 ft 155 kts 187°
2026-05-03 23:11 -37.17154 174.72764 5149 ft 156 kts 187°
2026-05-03 23:11 -37.17869 174.72577 5387 ft 156 kts 187°
2026-05-03 23:11 -37.18928 174.72300 5738 ft 156 kts 187°
2026-05-03 23:11 -37.19995 174.72018 6088 ft 157 kts 187°
2026-05-03 23:12 -37.21053 174.71960 6424 ft 152 kts 164°
2026-05-03 23:12 -37.22052 174.72339 6791 ft 149 kts 156°
2026-05-03 23:12 -37.23028 174.72787 7142 ft 150 kts 155°
2026-05-03 23:12 -37.24009 174.73231 7493 ft 150 kts 155°
2026-05-03 23:13 -37.25006 174.73682 7846 ft 150 kts 155°
2026-05-03 23:13 -37.25978 174.74116 8191 ft 150 kts 156°
2026-05-03 23:13 -37.26983 174.74547 8546 ft 151 kts 156°
2026-05-03 23:13 -37.27966 174.74968 8892 ft 151 kts 156°
2026-05-03 23:14 -37.28969 174.75396 9247 ft 151 kts 156°
2026-05-03 23:14 -37.29947 174.75815 9593 ft 150 kts 156°
2026-05-03 23:14 -37.30940 174.76226 9942 ft 150 kts 157°
2026-05-03 23:14 -37.31940 174.76630 10296 ft 149 kts 157°
2026-05-03 23:15 -37.32939 174.77044 10524 ft 156 kts 157°
2026-05-03 23:15 -37.34002 174.77483 10606 ft 168 kts 157°
2026-05-03 23:15 -37.35143 174.77958 10624 ft 178 kts 158°
2026-05-03 23:15 -37.36346 174.78456 10622 ft 184 kts 158°
2026-05-03 23:16 -37.37558 174.78946 10619 ft 187 kts 159°
2026-05-03 23:16 -37.38819 174.79454 10616 ft 189 kts 159°
2026-05-03 23:16 -37.40059 174.79987 10611 ft 189 kts 154°
2026-05-03 23:16 -37.40993 174.81073 10611 ft 184 kts 117°
2026-05-03 23:17 -37.41260 174.82631 10627 ft 184 kts 94°
2026-05-03 23:17 -37.41250 174.84224 10618 ft 181 kts 89°
2026-05-03 23:17 -37.41225 174.85812 10617 ft 178 kts 89°
2026-05-03 23:17 -37.41248 174.87354 10618 ft 177 kts 91°
2026-05-03 23:18 -37.41322 174.88884 10620 ft 176 kts 93°
2026-05-03 23:18 -37.41428 174.90429 10620 ft 176 kts 93°
2026-05-03 23:18 -37.41540 174.91967 10619 ft 176 kts 93°
2026-05-03 23:18 -37.41641 174.93495 10620 ft 176 kts 92°
2026-05-03 23:19 -37.41742 174.95033 10620 ft 176 kts 92°
2026-05-03 23:19 -37.41842 174.96592 10546 ft 180 kts 95°
2026-05-03 23:19 -37.41938 174.98128 10382 ft 186 kts 95°
2026-05-03 23:19 -37.42050 174.99815 10206 ft 189 kts 95°
2026-05-03 23:20 -37.42157 175.01454 10072 ft 189 kts 95°
2026-05-03 23:20 -37.42286 175.03088 10006 ft 186 kts 101°
2026-05-03 23:20 -37.42823 175.04536 10005 ft 182 kts 122°
2026-05-03 23:20 -37.43599 175.05783 9999 ft 180 kts 127°
2026-05-03 23:21 -37.44355 175.07052 9997 ft 178 kts 122°
2026-05-03 23:21 -37.44989 175.08386 10008 ft 177 kts 119°
2026-05-03 23:21 -37.45720 175.09625 10018 ft 178 kts 132°
2026-05-03 23:21 -37.46634 175.10670 10019 ft 178 kts 137°
2026-05-03 23:22 -37.48540 175.12654 10018 ft 179 kts 139°
2026-05-03 23:22 -37.49501 175.13645 10018 ft 179 kts 139°
2026-05-03 23:22 -37.50465 175.14639 10017 ft 179 kts 139°
2026-05-03 23:23 -37.51418 175.15636 10018 ft 179 kts 137°
2026-05-03 23:23 -37.52371 175.16651 10016 ft 179 kts 137°
2026-05-03 23:23 -37.53324 175.17667 10014 ft 179 kts 138°
2026-05-03 23:23 -37.54284 175.18676 10018 ft 179 kts 138°
2026-05-03 23:24 -37.55235 175.19689 10017 ft 179 kts 137°
2026-05-03 23:24 -37.56181 175.20694 10017 ft 179 kts 138°
2026-05-03 23:24 -37.57135 175.21700 10017 ft 179 kts 137°
2026-05-03 23:24 -37.58084 175.22712 10016 ft 179 kts 137°
2026-05-03 23:25 -37.59038 175.23718 10014 ft 179 kts 138°
2026-05-03 23:25 -37.59986 175.24726 10014 ft 179 kts 137°
2026-05-03 23:25 -37.60938 175.25735 10015 ft 179 kts 138°
2026-05-03 23:25 -37.61899 175.26756 10013 ft 179 kts 138°
2026-05-03 23:26 -37.62858 175.27765 10020 ft 179 kts 138°
2026-05-03 23:26 -37.63793 175.28739 9808 ft 168 kts 138°
2026-05-03 23:26 -37.64652 175.29650 9553 ft 159 kts 137°
2026-05-03 23:26 -37.65483 175.30535 9296 ft 153 kts 137°
2026-05-03 23:27 -37.66277 175.31378 9043 ft 149 kts 137°
2026-05-03 23:27 -37.67070 175.32216 8787 ft 146 kts 137°
2026-05-03 23:27 -37.67843 175.33027 8538 ft 144 kts 137°
2026-05-03 23:27 -37.68601 175.33842 8288 ft 143 kts 137°
2026-05-03 23:28 -37.69365 175.34652 8037 ft 143 kts 137°
2026-05-03 23:28 -37.70117 175.35456 7790 ft 142 kts 137°
2026-05-03 23:28 -37.70876 175.36260 7537 ft 142 kts 137°
2026-05-03 23:28 -37.71622 175.37059 7291 ft 142 kts 137°
2026-05-03 23:29 -37.72386 175.37852 7037 ft 142 kts 141°
2026-05-03 23:29 -37.73334 175.38127 6800 ft 142 kts 183°
2026-05-03 23:29 -37.74227 175.37856 6613 ft 119 kts 192°
2026-05-03 23:29 -37.74939 175.37582 6371 ft 98 kts 192°
2026-05-03 23:30 -37.75053 175.37539 6316 ft 97 kts 192°
2026-05-03 23:33 -37.75095 175.37523 6296 ft 97 kts 192°
2026-05-03 23:33 -37.75732 175.37284 6000 ft 92 kts 191°
2026-05-03 23:33 -37.76336 175.37058 5730 ft 89 kts 191°
2026-05-03 23:34 -37.76926 175.36838 5468 ft 87 kts 192°
2026-05-03 23:34 -37.77506 175.36623 5211 ft 86 kts 191°
2026-05-03 23:34 -37.78082 175.36411 4956 ft 85 kts 192°
2026-05-03 23:34 -37.78641 175.36208 4704 ft 84 kts 192°
2026-05-03 23:35 -37.79218 175.35994 4385 ft 90 kts 193°
2026-05-03 23:35 -37.79840 175.35765 3989 ft 96 kts 193°
2026-05-03 23:35 -37.80474 175.35517 3629 ft 94 kts 194°
2026-05-03 23:35 -37.81111 175.35273 3201 ft 98 kts 194°
2026-05-03 23:36 -37.81799 175.35026 2618 ft 105 kts 194°
2026-05-03 23:36 -37.82506 175.34786 1945 ft 105 kts 195°
2026-05-03 23:36 -37.83202 175.34490 1372 ft 104 kts 197°
2026-05-03 23:36 -37.83879 175.34241 922 ft 97 kts 196°
2026-05-03 23:37 -37.84516 175.34026 484 ft 92 kts 195°
2026-05-03 23:37 -37.85068 175.33809 265 ft 74 kts 199°
2026-05-03 23:37 -37.85501 175.33637 182 ft 49 kts 193°
2026-05-03 23:37 -37.85753 175.33558 181 ft 35 kts 194°
2026-05-03 23:38 -37.86071 175.33456 182 ft 52 kts 199°
2026-05-03 23:38 -37.86362 175.33339 181 ft 39 kts 197°
2026-05-03 23:38 -37.86534 175.33357 181 ft 18 kts 98°
2026-05-03 23:38 -37.86546 175.33487 181 ft 9 kts 94°
2026-05-03 23:39 -37.86549 175.33535 181 ft 0 kts 94°